Location: Alafon
(8.4500°N, 4.2333°E)
Time: 01:04:44
(UTC+00:00)

Resurs 01 Rocket - Pass Details

Date: 05 July 2020
Orbit: 634 x 644 km, 98.0° (Epoch: 06 August)

Event Time Altitude Azimuth Distance (km) Brightness Sun altitude
Exits shadow 20:45:39 13° 350° (N) 1,829 4.4 -35.6°
Drops below altitude 10° 20:46:07 10° 350° (N) 2,019 4.6 -35.7°
Sets 20:48:19 0° 350° (N) 2,925 5.6 -36.2°
